GW5487 Weather Reports


time (UTC)temp
C
wind
direction
speed
KPH
gust
KPH
rain 1hr
cm
rain 24hr
cm
rain mn
cm
humidity
%
barometer
mb
20260504214308 20 182 11.3 14.5 0.00 0.00 0.00 47 1009.9
20260504213804 21 215 4.8 11.3 0.00 0.00 0.00 47 1009.6
20260504213300 20 165 3.2 3.2 0.00 0.00 0.00 48 1009.7
20260504212758 20 165 4.8 8.0 0.00 0.00 0.00 50 1009.8
20260504212254 20 189 12.9 14.5 0.00 0.00 0.00 49 1009.8
20260504211752 20 183 12.9 16.1 0.00 0.00 0.00 48 1009.8
20260504211247 20 175 17.7 22.5 0.00 0.00 0.00 49 1009.6
20260504210745 20 245 12.9 20.9 0.00 0.00 0.00 50 1009.6
20260504210242 20 203 8.0 16.1 0.00 0.00 0.00 54 1009.6
20260504205739 20 223 6.4 8.0 0.00 0.00 0.00 54 1009.5
20260504205237 20 145 11.3 16.1 0.00 0.00 0.00 53 1009.4
20260504204735 20 90 6.4 8.0 0.00 0.00 0.00 55 1009.4
20260504204233 20 150 4.8 9.7 0.00 0.00 0.00 57 1009.7
20260504203732 20 167 9.7 16.1 0.00 0.00 0.00 58 1009.6
20260504203229 19 165 11.3 14.5 0.00 0.00 0.00 57 1009.6
20260504202729 20 175 12.9 14.5 0.00 0.00 0.00 57 1009.7
20260504202226 20 167 11.3 14.5 0.00 0.00 0.00 54 1009.6
20260504201724 20 129 6.4 11.3 0.00 0.00 0.00 55 1009.7
20260504201220 20 182 14.5 16.1 0.00 0.00 0.00 56 1009.5
20260504200718 20 81 12.9 16.1 0.00 0.00 0.00 56 1009.9
20260504200214 20 187 12.9 17.7 0.00 0.00 0.00 55 1009.6
20260504195711 20 159 8.0 9.7 0.00 0.00 0.00 56 1010.0
20260504195206 20 182 14.5 16.1 0.00 0.00 0.00 56 1009.8
20260504194703 21 188 14.5 16.1 0.00 0.00 0.00 49 1009.9
20260504194159 20 149 9.7 12.9 0.00 0.00 0.00 53 1009.8
20260504193656 21 182 9.7 14.5 0.00 0.00 0.00 53 1009.9
20260504193154 23 85 6.4 8.0 0.00 0.00 0.00 45 1010.0
20260504192652 23 184 4.8 9.7 0.00 0.00 0.00 31 1009.9
20260504192150 23 141 6.4 9.7 0.00 0.00 0.00 33 1010.0
20260504191648 23 182 6.4 9.7 0.00 0.00 0.00 33 1010.2
20260504191144 23 331 9.7 16.1 0.00 0.00 0.00 33 1010.3
20260504190640 23 267 8.0 9.7 0.00 0.00 0.00 34 1010.5
20260504190137 22 298 4.8 8.0 0.00 0.00 0.00 34 1010.5
20260504185633 22 298 4.8 4.8 0.00 0.00 0.00 34 1010.5
20260504185130 22 229 8.0 12.9 0.00 0.00 0.00 34 1010.7
20260504184626 22 264 3.2 4.8 0.00 0.00 0.00 35 1010.7
20260504184121 22 248 8.0 11.3 0.00 0.00 0.00 34 1010.6
20260504183618 22 262 8.0 11.3 0.00 0.00 0.00 34 1010.7
20260504183116 22 93 4.8 4.8 0.00 0.00 0.00 36 1010.7
20260504182613 23 267 6.4 9.7 0.00 0.00 0.00 35 1010.8
20260504182110 23 201 11.3 17.7 0.00 0.00 0.00 33 1010.8
20260504181608 22 311 8.0 11.3 0.00 0.00 0.00 37 1010.9
20260504181105 22 318 9.7 16.1 0.00 0.00 0.00 36 1011.0
20260504180604 22 149 3.2 3.2 0.00 0.00 0.00 34 1011.2
20260504175559 21 258 4.8 4.8 0.00 0.00 0.00 37 1011.1
20260504175056 21 299 11.3 12.9 0.00 0.00 0.00 36 1011.1
20260504174554 22 298 19.3 24.1 0.00 0.00 0.00 35 1011.3
20260504174051 22 183 11.3 14.5 0.00 0.00 0.00 34 1011.3
20260504173548 22 223 1.6 3.2 0.00 0.00 0.00 35 1011.4
20260504173045 22 311 17.7 22.5 0.00 0.00 0.00 36 1011.4
20260504172541 21 357 14.5 20.9 0.00 0.00 0.00 36 1011.5
20260504172038 22 207 6.4 8.0 0.00 0.00 0.00 35 1011.6
20260504171535 22 259 8.0 12.9 0.00 0.00 0.00 35 1011.5
20260504171032 21 232 8.0 9.7 0.00 0.00 0.00 35 1011.7
20260504170528 21 333 14.5 17.7 0.00 0.00 0.00 36 1011.7
20260504150912 20 185 3.2 8.0 0.00 0.00 0.00 43 1013.0
20260504150408 18 172 4.8 8.0 0.00 0.00 0.00 43 1013.2
20260504140835 18 185 1.6 3.2 0.00 0.00 0.00 43 1013.5
20260504140330 17 225 3.2 3.2 0.00 0.00 0.00 44 1013.3
20260504130800 16 185 8.0 11.3 0.00 0.00 0.00 51 1014.0
20260504130255 16 229 3.2 8.0 0.00 0.00 0.00 53 1014.0
20260504120219 12 233 4.8 4.8 0.00 0.00 0.00 70 1014.5
20260504110647 9 225 3.2 3.2 0.00 0.00 0.00 76 1014.8
20260504110143 9 242 3.2 3.2 0.00 0.00 0.00 75 1014.9
20260504100609 8 219 3.2 3.2 0.00 0.00 0.00 73 1014.6
20260504100107 8 214 3.2 3.2 0.00 0.00 0.00 74 1014.5
20260504082003 7 202 0.0 0.0 0.00 0.00 0.00 67 1014.6
20260504081500 7 217 0.0 0.0 0.00 0.00 0.00 67 1014.2
20260504080955 8 207 0.0 0.0 0.00 0.00 0.00 66 1014.4
20260504080452 8 218 0.0 0.0 0.00 0.00 0.00 65 1014.4
20260504050305 7 214 0.0 0.0 0.00 0.00 0.00 61 1013.8
20260504045802 8 218 1.6 3.2 0.00 0.00 0.00 59 1014.0
20260504045256 8 213 0.0 0.0 0.00 0.00 0.00 60 1013.7
20260504044754 7 215 0.0 0.0 0.00 0.00 0.00 60 1013.7
20260504044251 8 217 0.0 0.0 0.00 0.00 0.00 59 1013.5
20260504043748 8 214 0.0 0.0 0.00 0.00 0.00 59 1013.6
20260504043245 8 218 0.0 0.0 0.00 0.00 0.00 59 1013.7
20260504042743 8 222 1.6 1.6 0.00 0.00 0.00 57 1013.5
20260504042239 8 204 1.6 1.6 0.00 0.00 0.00 57 1013.6
20260504041735 8 215 1.6 1.6 0.00 0.00 0.00 55 1013.5
20260504041231 8 226 1.6 1.6 0.00 0.00 0.00 55 1013.3
20260504040728 8 227 1.6 1.6 0.00 0.00 0.00 55 1013.5
20260504040225 8 230 3.2 3.2 0.00 0.00 0.00 55 1013.4
20260504035721 8 263 1.6 1.6 0.00 0.00 0.00 56 1013.4
20260504035220 8 213 0.0 0.0 0.00 0.00 0.00 56 1013.4
20260504034717 8 222 0.0 0.0 0.00 0.00 0.00 57 1013.1
20260504034214 8 216 0.0 0.0 0.00 0.00 0.00 56 1013.3
20260504033712 8 225 1.6 1.6 0.00 0.00 0.00 55 1013.3
20260504033208 8 200 0.0 0.0 0.00 0.00 0.00 55 1013.3
20260504032705 9 239 1.6 1.6 0.00 0.00 0.00 55 1013.1
20260504032202 9 223 1.6 1.6 0.00 0.00 0.00 54 1013.0
20260504031658 9 191 0.0 0.0 0.00 0.00 0.00 54 1013.1
20260504031155 9 209 1.6 3.2 0.00 0.00 0.00 54 1013.3
20260504030652 10 204 1.6 1.6 0.00 0.00 0.00 53 1013.3
20260504030149 10 208 3.2 3.2 0.00 0.00 0.00 52 1012.9
20260504025646 10 205 1.6 3.2 0.00 0.00 0.00 52 1013.1
20260504025143 10 194 0.0 0.0 0.00 0.00 0.00 53 1013.1
20260504024640 8 287 4.8 8.0 0.00 0.00 0.00 56 1013.1
20260504024136 8 208 0.0 0.0 0.00 0.00 0.00 55 1013.0
20260504023633 8 204 0.0 0.0 0.00 0.00 0.00 57 1013.0
20260504023130 8 211 0.0 1.6 0.00 0.00 0.00 55 1012.9
20260504022626 8 241 1.6 3.2 0.00 0.00 0.00 56 1013.0
20260504022121 8 216 0.0 0.0 0.00 0.00 0.00 58 1013.0
20260504021619 8 203 0.0 0.0 0.00 0.00 0.00 57 1013.2
20260504021115 9 205 0.0 0.0 0.00 0.00 0.00 55 1013.0
20260504020613 9 203 0.0 0.0 0.00 0.00 0.00 55 1013.0
20260504020109 9 206 0.0 0.0 0.00 0.00 0.00 57 1013.1
20260504015606 9 206 0.0 0.0 0.00 0.00 0.00 55 1013.0
20260504015102 9 202 0.0 0.0 0.00 0.00 0.00 56 1013.2
20260504014558 9 202 0.0 1.6 0.00 0.00 0.00 55 1013.0
20260504014055 9 204 0.0 0.0 0.00 0.00 0.00 56 1013.1
20260504013552 9 205 0.0 0.0 0.00 0.00 0.00 58 1012.7
20260504013049 9 212 0.0 0.0 0.00 0.00 0.00 56 1012.8
20260504012547 9 210 0.0 0.0 0.00 0.00 0.00 55 1013.0
20260504012045 10 210 0.0 0.0 0.00 0.00 0.00 56 1012.5
20260504011541 10 203 0.0 0.0 0.00 0.00 0.00 53 1012.7
20260504011037 10 201 0.0 0.0 0.00 0.00 0.00 53 1012.7
20260504010533 10 200 0.0 0.0 0.00 0.00 0.00 52 1012.4
20260504010029 10 205 0.0 0.0 0.00 0.00 0.00 50 1012.5
20260504005526 10 206 0.0 0.0 0.00 0.00 0.00 50 1012.4
20260504005024 11 209 0.0 0.0 0.00 0.00 0.00 49 1012.3
20260504004522 11 200 0.0 0.0 0.00 0.00 0.00 49 1012.2
20260504004019 10 200 0.0 0.0 0.00 0.00 0.00 49 1012.1
20260504003514 11 210 0.0 0.0 0.00 0.00 0.00 50 1012.0
20260504003012 11 203 0.0 0.0 0.00 0.00 0.00 48 1012.2
20260504002508 11 196 0.0 1.6 0.00 0.00 0.00 45 1012.1
20260504002006 11 202 0.0 0.0 0.00 0.00 0.00 46 1011.9
20260504001503 11 202 0.0 0.0 0.00 0.00 0.00 45 1012.0
20260504000959 12 214 0.0 0.0 0.00 0.00 0.00 44 1011.8
20260504000456 12 215 0.0 0.0 0.00 0.00 0.00 42 1011.8
20260503235953 12 221 0.0 0.0 0.00 0.00 0.00 42 1011.6
20260503235451 13 221 0.0 0.0 0.00 0.00 0.00 42 1011.6
20260503234948 13 221 0.0 0.0 0.00 0.00 0.00 40 1011.6
20260503234446 13 239 1.6 3.2 0.00 0.00 0.00 38 1011.5
20260503233944 14 210 0.0 0.0 0.00 0.00 0.00 38 1011.5
20260503233440 14 243 3.2 3.2 0.00 0.00 0.00 36 1011.4
20260503232936 15 231 3.2 3.2 0.00 0.00 0.00 35 1011.2
20260503232433 15 230 3.2 3.2 0.00 0.00 0.00 36 1011.4
20260503231932 15 308 8.0 14.5 0.00 0.00 0.00 35 1011.4
20260503231429 15 289 12.9 16.1 0.00 0.00 0.00 34 1011.5
20260503230925 15 291 4.8 9.7 0.00 0.00 0.00 34 1011.5
20260503230421 15 291 9.7 11.3 0.00 0.00 0.00 34 1011.2
20260503225919 15 265 6.4 8.0 0.00 0.00 0.00 34 1011.1
20260503225415 15 232 4.8 4.8 0.00 0.00 0.00 34 1011.3
20260503224911 15 291 8.0 11.3 0.00 0.00 0.00 33 1011.2
20260503224409 15 261 8.0 9.7 0.00 0.00 0.00 33 1011.2
20260503223906 15 291 9.7 14.5 0.00 0.00 0.00 33 1011.2
20260503223404 15 290 11.3 14.5 0.00 0.00 0.00 32 1011.2
20260503222859 15 275 3.2 3.2 0.00 0.00 0.00 33 1011.0
20260503222358 15 293 9.7 11.3 0.00 0.00 0.00 33 1011.0
20260503221856 15 301 14.5 16.1 0.00 0.00 0.00 32 1011.2
20260503221355 15 309 17.7 24.1 0.00 0.00 0.00 32 1011.3
20260503220850 15 320 12.9 20.9 0.00 0.00 0.00 33 1011.2
20260503220347 15 299 12.9 16.1 0.00 0.00 0.00 33 1011.2
20260503215844 15 282 16.1 25.7 0.00 0.00 0.00 33 1011.2
20260503215341 15 299 17.7 25.7 0.00 0.00 0.00 33 1010.9
20260503214839 15 334 11.3 14.5 0.00 0.00 0.00 33 1010.9